パンスターズ彗星

C/2022 S3 ( PanSTARRS )

English version
Home page
Updated on February 26, 2023

---------------------------------------------------------------------

・ プロフィール

発見日 2022年9月19日
発見光度 21.0等
発見者 Pan-STARRS 1 telescope (Haleakala)

・ 写真集

・ 軌道要素

Epoch 2022 Aug. 9.0 TT = JDT 2459800.5
T 2023 Jan. 21.68153 TT                                 Rudenko
q   0.8382565            (2000.0)            P               Q
z  -0.0004325      Peri.  267.97043     +0.10910875     -0.91939771
 +/-0.0001596      Node   157.32183     +0.54491843     +0.37327191
e   1.0003625      Incl.   78.55877     -0.83135984     +0.12399974
>From 82 observations 2022 Sept. 19-Oct. 25, mean residual 0".5.

・ 星図

・ 光度変化

        m1 =  9.5 + 5 logΔ + 30.0 log r          [   ,-92]  (              〜2022年10月21日)
        m1 = 17.0 + 5 logΔ + 10.0 log r(t + 60)  [-92,   ]  (2022年10月21日〜              )

        ※ 灰色の曲線は、m1 = 14.5 + 5 logΔ + 10.0 log r の光度曲線です。

---------------------------------------------------------------------

軌道要素はM.P.E.C. 2022-V125に掲載されたものです。
星図はステラナビゲータ Ver.10 (アストロアーツ) で作成したものです。
光度グラフはComet for Windowsで作成したものです。

---------------------------------------------------------------------

Copyright(C) Seiichi Yoshida (comet@aerith.net). All rights reserved.